This is the latest recevied weather packets stored in our database for station/object N4TLC. If no packets are shown the sender has not sent any weather packets the latest 10 day(s).
| Time | Temp. | Humidity | Pressure | Rain* | Wind** | Luminosity | Snow |
|---|---|---|---|---|---|---|---|
| 1777596515 | 17.22° C | 38% | 1013.6 hPa | 0 mm | - | 0 W/m² | - |
| 1777596213 | 17.78° C | 36% | 1013.5 hPa | 0 mm | - | 0 W/m² | - |
| 1777595909 | 17.78° C | 36% | 1013.2 hPa | 0 mm | - | 0 W/m² | - |
| 1777595604 | 17.78° C | 36% | 1013.3 hPa | 0 mm | - | 0 W/m² | - |
| 1777595300 | 18.33° C | 35% | 1013.3 hPa | 0 mm | - | 0 W/m² | - |
| 1777594996 | 18.33° C | 33% | 1013.2 hPa | 0 mm | - | 0 W/m² | - |
| 1777594693 | 18.89° C | 32% | 1013.1 hPa | 0 mm | - | 1 W/m² | - |
| 1777594390 | 18.89° C | 31% | 1012.8 hPa | 0 mm | - | 2 W/m² | - |
| 1777594085 | 18.89° C | 32% | 1012.7 hPa | 0 mm | - | 3 W/m² | - |
| 1777593781 | 18.89° C | 32% | 1012.6 hPa | 0 mm | - | 5 W/m² | - |
| 1777593478 | 19.44° C | 32% | 1012.6 hPa | 0 mm | - | 8 W/m² | - |
| 1777593176 | 19.44° C | 31% | 1012.5 hPa | 0 mm | - | 10 W/m² | - |
| 1777592875 | 20° C | 32% | 1012.4 hPa | 0 mm | - | 14 W/m² | - |
| 1777592573 | 20° C | 31% | 1012.4 hPa | 0 mm | - | 17 W/m² | - |
| 1777592268 | 20.56° C | 31% | 1012.2 hPa | 0 mm | - | 20 W/m² | - |
| 1777591964 | 21.11° C | 30% | 1012.5 hPa | 0 mm | - | 24 W/m² | - |
| 1777591660 | 21.67° C | 29% | 1012.3 hPa | 0 mm | - | 43 W/m² | - |
| 1777591357 | 21.67° C | 29% | 1012.2 hPa | 0 mm | - | 45 W/m² | - |
| 1777591053 | 21.67° C | 29% | 1012.2 hPa | 0 mm | - | 53 W/m² | - |
| 1777590749 | 22.22° C | 28% | 1012 hPa | 0 mm | - | 67 W/m² | - |
| 1777590445 | 22.22° C | 28% | 1012.1 hPa | 0 mm | - | 80 W/m² | - |
| 1777590142 | 22.22° C | 29% | 1012.1 hPa | 0 mm | - | 94 W/m² | - |
| 1777589838 | 22.78° C | 29% | 1011.9 hPa | 0 mm | - | 113 W/m² | - |
| 1777589533 | 22.78° C | 30% | 1012 hPa | 0 mm | - | 134 W/m² | - |
| 1777589232 | 22.78° C | 29% | 1011.7 hPa | 0 mm | - | 154 W/m² | - |
* Rain latest hour (hover to see other rain measurements)
** Current wind speed in m/s (hover to see current wind gust speed)